Wind_Speed
69 68 66 66 67 67 66 65 63 60 59 59 59 57 56 56 53 50 51 52 49 47 48 47 46 46 45 43 44 44 43 43 42 40 38 37 36 36 35 34 33 32 31 29 28 28 29 30 30 30 30 31 32 33 34 34 36 37 39 39 37 35 36 37 37 37 37 36 36 37 37 38 38 37 39 39 39 39 40 40 39 39 40 40 40 41
70 68 68 69 69 68 67 66 64 62 62 62 61 60 59 58 55 52 53 53 50 49 50 48 46 46 46 45 45 44 43 44 43 41 40 39 38 38 37 35 35 34 33 31 29 29 30 31 30 31 31 32 33 34 35 35 35 36 38 40 39 37 36 37 38 38 38 38 37 37 38 38 39 39 40 40 39 39 39 40 40 40 42 42 42 42
70 69 70 69 68 68 68 67 64 63 63 62 62 61 60 59 56 54 54 53 51 51 51 49 47 47 47 46 46 45 44 44 43 42 42 41 40 40 38 37 37 36 34 33 31 31 31 31 31 32 32 32 33 34 35 35 33 34 36 39 40 39 37 37 38 39 38 38 38 37 37 38 38 40 40 40 41 40 39 40 41 41 42 43 42 42
72 71 70 69 69 69 68 66 64 63 63 63 63 62 61 60 58 55 54 54 54 54 53 51 49 48 49 47 47 46 43 44 44 43 43 43 43 41 40 39 39 38 37 35 34 33 33 33 32 32 32 32 33 34 35 34 32 32 34 37 40 41 40 38 38 39 39 38 38 38 37 37 37 38 39 39 40 39 38 39 40 40 41 41 42 42
74 72 70 70 70 69 67 64 64 64 65 65 64 63 63 63 59 57 57 57 57 56 55 54 50 49 50 48 47 47 45 45 44 43 45 45 44 43 41 40 40 40 40 38 36 35 35 35 33 31 32 32 33 33 34 33 33 33 35 36 38 40 42 40 39 39 38 39 38 38 37 37 37 37 37 38 38 38 38 38 39 39 40 40 40 40
74 71 71 71 71 69 67 65 65 66 66 67 66 66 65 64 62 60 60 60 60 58 57 57 51 47 50 47 47 49 47 45 45 44 46 47 45 43 42 42 42 42 42 41 39 37 36 37 35 33 33 33 33 33 34 34 34 35 36 36 36 38 41 41 40 39 39 39 38 38 37 37 37 37 38 37 38 38 38 38 39 40 40 41 41 41
73 71 71 72 72 71 69 68 68 68 69 69 68 68 68 67 65 64 63 61 62 60 58 59 52 47 49 48 49 51 47 44 46 46 48 48 45 43 43 45 45 44 44 43 42 40 39 38 38 36 35 34 34 34 35 35 35 35 36 36 36 36 39 41 40 39 39 39 38 38 37 37 37 38 38 39 39 39 39 39 40 41 41 42 43 43
74 73 74 75 75 74 72 71 71 72 72 72 71 70 71 69 67 66 65 63 63 61 59 58 54 47 46 48 53 52 46 44 48 49 51 49 46 45 45 47 47 47 47 46 45 43 41 40 39 39 37 36 36 35 36 36 35 36 37 37 36 36 38 41 41 40 40 39 38 38 38 37 38 39 39 40 40 40 40 40 41 42 42 43 44 45
77 76 77 78 78 77 76 75 75 75 76 74 72 72 72 71 68 67 66 65 64 63 58 57 56 49 42 47 56 53 46 46 51 52 52 50 48 47 47 48 49 50 49 48 47 46 44 42 40 40 40 39 39 37 37 37 36 36 37 38 38 38 39 41 42 41 40 40 38 38 38 38 38 40 40 41 42 42 41 42 42 42 42 43 44 45
79 79 80 80 80 78 77 76 76 77 77 75 73 72 73 72 69 68 68 67 67 64 57 57 59 52 42 44 55 54 48 49 53 54 53 52 51 49 48 50 51 52 51 50 49 48 47 45 43 43 42 41 40 39 38 37 36 36 37 38 38 39 40 41 41 41 41 40 38 38 39 39 39 41 42 43 44 44 43 43 43 43 43 43 44 45
80 80 81 80 80 79 78 78 78 78 76 74 73 72 73 73 72 72 71 71 70 64 58 59 60 56 46 41 47 53 52 53 55 57 57 54 52 51 51 52 53 53 53 51 50 50 50 49 47 46 44 43 42 41 39 38 36 36 37 38 38 39 40 41 41 40 40 40 39 39 41 41 41 42 44 44 45 45 44 44 44 44 44 44 45 46
80 80 80 80 80 79 79 79 78 79 77 75 75 74 75 76 76 76 74 74 72 65 61 62 61 59 49 39 43 52 55 55 57 60 60 57 55 54 54 54 54 54 53 52 52 52 52 51 51 50 48 46 44 42 40 38 37 36 37 38 39 39 40 41 42 42 40 39 40 41 42 44 44 45 46 46 46 46 45 45 46 46 47 47 47 48
81 81 81 81 81 80 79 78 78 79 78 77 77 77 78 79 80 79 77 75 73 68 65 64 63 60 49 40 43 49 52 55 60 63 63 61 59 57 57 57 57 56 54 54 53 54 54 54 54 53 50 47 45 43 41 40 38 37 37 38 40 41 41 41 43 44 42 41 42 43 44 46 47 47 48 48 48 48 47 47 47 48 49 49 50 51
84 83 82 81 81 81 80 80 79 80 81 80 80 81 82 83 83 80 78 77 75 72 68 66 64 58 48 44 46 47 49 54 59 63 65 65 63 61 60 61 59 57 56 55 55 56 56 56 56 55 52 48 46 45 44 43 42 40 38 38 40 43 44 43 44 45 46 46 46 46 47 48 48 49 49 50 49 50 50 50 49 49 50 51 52 52
85 84 83 82 83 83 83 82 82 84 85 84 84 84 84 83 82 80 79 79 77 73 71 69 65 56 48 49 50 50 51 53 55 60 64 65 65 65 65 65 63 60 58 58 59 59 59 59 59 58 55 51 50 50 49 48 47 45 42 40 41 43 45 47 47 48 49 49 50 49 49 50 50 51 52 52 52 52 53 53 52 52 52 53 54 54
86 86 85 85 86 86 86 86 86 88 87 86 86 86 83 80 80 81 81 80 78 77 74 70 65 57 52 53 53 53 53 53 55 58 61 64 65 66 67 68 67 64 63 63 63 63 62 61 62 62 60 56 54 54 54 54 53 50 47 45 44 45 46 48 50 52 53 52 52 52 52 52 53 53 54 55 55 54 55 56 55 55 56 56 57 57
88 88 87 87 87 88 88 89 90 90 89 88 89 87 83 81 83 86 85 81 81 81 76 71 67 59 56 55 53 54 54 55 56 59 61 64 64 66 67 68 68 67 66 66 66 65 65 64 64 64 63 60 59 59 59 59 58 56 53 50 49 50 50 50 51 54 55 54 54 54 54 55 56 55 56 56 56 56 57 57 58 58 58 59 59 60
93 93 90 89 89 89 90 91 93 93 91 90 89 88 85 85 86 87 86 83 83 82 76 71 68 63 60 57 53 54 56 57 59 61 62 63 64 65 67 68 69 69 69 68 67 67 67 67 66 65 64 64 63 63 62 62 62 61 59 56 54 55 55 53 52 53 56 57 57 57 58 58 58 58 58 58 58 58 59 59 59 60 61 61 61 62
96 95 92 90 89 89 91 93 94 93 91 89 88 87 86 86 86 86 87 85 83 83 79 73 71 67 62 57 55 56 58 59 61 62 62 63 64 66 66 69 71 71 70 69 68 69 69 68 68 67 66 65 65 66 66 65 65 65 63 59 57 58 58 56 55 56 57 58 60 61 61 62 61 60 60 60 60 60 60 60 61 62 63 63 63 64
98 96 94 92 90 91 93 94 93 91 90 89 88 88 87 87 87 87 88 87 85 86 82 77 74 69 61 58 59 60 61 61 62 62 62 64 65 67 68 70 72 72 72 71 70 70 70 69 69 69 68 68 68 69 68 68 67 67 65 61 59 61 62 60 60 60 60 60 61 64 65 65 64 63 63 63 62 62 62 62 63 63 64 65 65 66
100 98 96 94 92 92 92 91 90 90 91 91 89 89 88 87 88 88 89 88 87 87 84 81 77 67 60 61 63 63 63 63 63 63 64 66 67 69 71 72 72 73 73 73 72 71 71 72 72 72 71 71 71 72 71 70 69 68 66 64 63 65 66 66 65 64 63 63 64 66 67 68 67 66 66 66 65 65 65 66 66 66 67 67 67 68
102 99 98 97 94 92 90 89 90 92 93 92 91 90 88 87 89 90 90 89 88 88 85 84 80 67 59 64 65 64 65 65 65 66 67 69 70 71 73 73 73 73 73 73 73 73 74 74 75 75 75 74 74 75 74 72 70 69 67 66 67 68 69 70 70 69 67 68 68 68 68 69 70 70 69 69 69 69 69 69 69 69 69 69 69 70
106 104 102 100 97 94 92 92 93 94 94 94 92 90 88 88 90 90 91 89 89 90 87 88 86 70 59 65 67 66 68 68 68 70 71 72 73 72 73 74 73 74 74 75 76 76 78 78 78 78 77 76 77 77 76 74 72 71 70 70 71 72 72 71 72 72 72 72 72 71 71 71 72 72 72 72 72 72 72 72 72 72 71 70 71 71
110 109 107 104 101 98 96 95 94 95 95 94 92 90 90 90 90 91 93 92 92 92 89 91 91 74 60 66 70 69 71 72 72 73 74 74 75 74 73 74 75 76 77 78 79 80 81 82 81 79 78 78 79 79 78 76 74 73 73 73 74 75 74 72 72 75 76 75 74 74 73 72 72 73 73 73 73 73 73 73 73 72 72 72 72 73
109 109 108 107 106 103 101 99 98 97 96 95 93 92 92 92 93 95 96 96 96 94 91 93 94 80 66 69 73 72 74 76 74 75 75 76 77 76 75 76 77 78 80 81 82 83 82 82 81 80 79 80 81 80 79 78 77 76 76 75 76 76 75 73 73 76 79 78 76 74 73 73 73 74 74 74 73 73 73 73 73 73 73 74 75 76
108 109 108 107 106 103 101 100 101 99 99 99 97 96 96 96 98 99 99 101 100 97 95 97 96 85 73 72 75 75 76 77 77 77 77 78 79 79 79 80 81 82 83 83 84 84 83 82 83 82 82 83 83 81 81 80 79 79 78 77 77 77 77 75 75 77 79 79 77 74 74 75 75 75 75 75 75 74 74 75 75 75 76 76 77 78
110 109 108 107 105 102 100 101 102 100 100 101 100 99 99 100 101 103 104 104 102 99 99 99 96 90 81 76 77 77 78 79 80 80 81 82 83 83 84 84 84 85 86 85 85 86 85 84 84 85 85 85 85 84 84 83 82 81 80 79 78 78 78 76 75 76 77 78 77 77 77 78 78 78 78 77 77 76 77 77 78 78 79 79 80 81
113 112 110 108 106 104 102 104 103 100 99 101 101 101 102 103 104 106 107 105 103 103 103 99 96 95 90 83 79 78 80 82 82 83 85 86 86 87 86 86 86 87 87 87 87 88 88 87 86 86 87 88 88 87 86 86 85 83 82 81 80 79 78 76 74 75 77 78 80 80 81 81 81 82 82 82 81 80 80 80 81 81 82 82 83 84
116 115 113 112 111 108 106 107 106 103 102 102 102 103 104 105 106 107 107 105 104 106 104 98 97 99 95 86 79 78 81 83 82 84 87 88 89 89 89 88 88 88 89 90 89 89 91 91 89 88 89 91 91 89 88 88 87 85 83 83 82 81 79 77 76 77 79 81 82 83 83 83 83 84 85 85 84 83 82 82 83 84 84 85 85 86
119 118 116 116 115 113 111 110 110 108 107 105 105 105 105 106 107 106 105 104 104 106 106 102 101 100 96 89 83 82 84 85 86 88 91 92 92 92 92 91 91 91 92 92 92 92 93 94 94 92 91 91 92 91 89 89 88 87 86 85 85 84 82 80 78 79 82 84 84 84 84 84 85 85 86 86 85 84 84 84 85 86 86 87 87 88
120 119 118 118 119 117 114 113 113 113 112 111 109 108 108 107 106 105 104 104 106 108 108 106 105 100 95 92 91 89 90 92 93 92 93 93 93 94 96 96 96 95 95 95 95 94 94 95 95 94 93 92 92 92 91 91 90 90 89 88 88 87 85 83 81 82 85 87 87 86 86 86 86 86 86 86 86 86 86 87 88 88 89 90 90 90
120 120 120 120 121 119 116 116 116 116 117 117 115 112 110 108 106 105 106 107 108 109 109 108 107 102 95 94 97 96 95 95 94 92 92 92 94 97 99 100 100 98 97 96 96 96 95 95 95 95 95 94 94 94 93 92 92 91 90 90 90 89 88 86 85 86 88 89 90 89 89 89 89 88 88 88 89 89 90 90 91 92 93 93 94 94
121 121 121 122 122 119 117 117 118 120 122 122 117 112 110 110 110 110 110 111 110 110 111 111 109 105 101 99 100 99 97 96 95 94 93 94 95 98 101 101 100 99 98 98 98 97 95 95 95 95 95 95 95 94 94 93 93 93 93 93 92 92 91 90 90 90 90 91 92 92 91 91 91 92 92 92 93 93 93 93 94 94 95 95 96 96
123 123 122 123 123 120 118 118 121 124 125 122 116 112 112 114 114 114 113 112 111 112 113 113 112 109 106 103 101 100 100 100 100 98 96 97 99 101 101 101 100 100 100 101 100 98 96 95 94 95 96 96 97 97 97 97 97 97 97 96 95 95 94 93 93 92 92 93 93 93 93 94 94 95 95 95 95 95 95 94 95 95 96 96 97 97
123 124 123 123 123 121 118 120 124 126 124 120 115 114 114 115 115 115 115 114 114 115 116 117 116 114 111 108 105 103 103 104 105 103 101 101 103 103 103 101 101 102 103 103 102 100 99 98 98 98 99 100 101 101 101 101 101 100 99 98 98 97 97 96 94 93 93 93 93 93 94 94 95 95 95 95 95 95 95 95 95 96 96 96 97 97
120 121 122 122 123 121 120 120 123 123 121 118 116 114 114 114 115 116 117 117 117 118 119 121 120 118 115 113 110 109 109 110 111 109 106 105 106 107 106 105 104 106 106 105 104 104 104 103 103 103 102 102 103 103 102 102 101 101 100 99 98 98 97 96 94 94 93 93 93 93 93 94 94 94 94 95 95 95 95 95 96 96 96 97 97 97
116 117 118 119 120 120 119 118 119 120 118 115 112 109 108 110 113 117 120 120 119 119 120 122 121 120 118 116 115 115 116 117 115 111 109 109 111 112 112 110 110 110 108 107 106 106 105 105 105 105 104 103 103 102 102 102 101 100 99 98 97 96 95 94 94 93 93 92 92 92 93 93 93 94 94 95 95 95 96 96 96 96 97 97 97 97
113 113 114 115 116 117 117 116 116 117 115 109 103 101 103 106 110 115 119 119 116 115 116 119 120 121 120 118 118 118 119 120 117 112 109 112 116 117 115 113 112 112 110 108 107 106 105 105 104 104 104 103 102 101 101 100 99 98 97 96 95 94 94 93 93 93 93 92 92 92 93 93 94 94 94 94 95 95 95 95 95 95 96 96 96 97
110 111 112 113 113 112 112 112 112 111 108 101 96 95 98 102 107 112 116 117 113 109 110 113 115 116 115 114 115 116 118 118 116 112 111 114 116 116 114 112 112 112 111 109 107 105 104 104 103 102 101 100 99 98 97 97 95 94 93 92 92 92 92 92 92 92 92 91 92 92 92 92 92 93 93 93 93 93 93 93 94 94 95 96 96 97
110 110 111 112 111 110 110 111 110 107 102 96 91 90 93 98 104 109 113 113 109 105 105 107 109 110 109 108 109 110 112 112 111 108 107 108 109 108 107 106 107 107 107 105 103 102 100 99 98 97 96 94 93 92 91 90 88 87 87 86 86 86 87 87 88 88 88 88 88 89 89 90 90 91 91 92 92 93 93 93 94 95 95 96 97 97
114 114 114 114 113 113 114 115 114 110 105 98 94 93 96 99 104 109 111 110 106 103 102 103 106 107 107 106 106 106 106 106 104 102 99 99 100 99 98 98 99 100 100 99 98 97 96 94 93 91 89 88 86 85 84 83 82 81 81 81 81 81 82 82 82 83 83 84 84 85 86 88 89 90 91 92 92 93 94 94 95 96 96 97 97 97
119 119 119 119 118 118 118 118 118 115 110 106 102 101 102 104 107 109 110 110 108 107 106 105 106 108 109 109 108 107 106 104 102 100 98 96 97 97 96 95 95 95 95 95 94 94 93 91 90 88 86 84 83 82 82 82 81 81 81 81 81 81 81 81 81 82 82 83 84 85 87 88 89 90 91 92 93 93 94 94 95 96 96 97 97 96
124 124 124 123 122 122 122 122 122 119 114 111 109 108 109 110 111 112 113 113 113 114 112 110 110 111 111 112 111 110 108 106 104 103 100 98 97 98 98 97 96 95 95 95 94 94 93 91 90 88 87 86 85 85 85 85 85 85 85 85 84 85 85 85 85 85 86 87 88 89 90 91 92 92 93 93 93 94 94 95 95 96 97 97 97 97
127 127 127 126 125 126 126 125 124 122 118 116 115 115 114 115 116 117 119 119 119 119 118 116 115 115 114 114 113 112 111 109 108 106 104 101 100 100 100 100 99 98 97 96 96 95 95 94 92 91 90 90 89 89 89 89 89 89 89 89 88 89 89 89 89 90 90 91 92 92 93 94 94 95 95 95 96 96 96 97 97 97 98 98 99 99
130 130 129 129 129 129 129 127 125 124 123 122 121 120 120 120 121 122 123 123 123 123 124 123 121 120 118 117 116 115 115 114 112 110 108 106 104 103 103 103 103 102 100 100 99 99 99 98 96 94 94 93 94 94 94 94 93 93 92 92 92 91 91 92 92 93 93 94 95 95 95 96 96 97 97 98 98 99 99 99 100 100 100 100 101 101
134 134 133 133 132 132 131 130 128 128 127 127 126 126 125 125 126 127 127 127 126 126 126 127 126 124 123 122 121 121 120 119 118 116 115 114 112 111 110 109 108 107 106 105 105 105 104 103 102 101 100 99 99 99 99 98 98 97 97 96 95 94 94 94 94 94 95 95 96 97 97 98 98 99 100 100 101 101 101 102 102 102 103 103 103 104
138 138 137 136 135 134 134 133 132 131 131 131 132 131 131 130 131 131 131 131 130 129 129 129 129 128 126 126 126 126 125 125 124 123 123 122 121 119 118 116 115 114 113 112 112 111 111 110 110 109 108 106 105 104 104 103 102 102 102 101 100 99 98 97 97 97 97 97 98 99 100 101 102 103 103 103 103 104 104 105 105 106 106 106 106 106
141 141 141 140 139 138 136 135 135 135 135 136 136 136 135 134 134 134 135 135 134 133 132 132 131 131 130 129 129 129 129 128 127 127 127 126 125 125 124 122 121 120 119 118 118 118 117 117 116 115 114 113 112 111 110 109 108 108 108 107 105 104 103 102 102 101 101 101 102 103 104 106 106 107 107 107 107 107 108 109 109 109 108 108 108 108
142 142 142 143 142 141 139 138 138 138 140 142 142 140 139 139 139 139 139 139 138 137 136 136 135 134 134 133 133 132 132 131 131 131 130 129 128 128 127 126 125 124 123 123 123 123 122 122 122 121 120 119 118 117 116 115 114 114 113 113 111 110 109 109 108 107 107 107 108 109 110 111 111 111 111 111 112 112 112 112 111 111 110 110 110 110
142 143 144 145 145 144 142 141 142 143 144 144 144 143 142 143 143 143 142 142 142 142 142 141 140 139 139 138 137 137 136 136 135 135 134 133 132 131 131 131 130 128 128 127 126 126 126 125 125 125 124 123 122 121 120 119 119 119 118 117 116 115 114 113 112 112 112 112 113 114 115 116 115 115 115 115 115 115 115 114 113 112 111 111 111 111
138 141 143 145 145 144 142 143 145 146 146 145 144 144 145 145 145 145 145 144 145 145 146 146 145 144 143 143 143 143 142 141 141 140 139 138 137 137 136 136 135 133 132 131 130 129 129 129 128 128 127 126 125 124 123 123 123 122 122 120 119 118 117 116 116 115 115 116 117 118 118 118 118 117 117 117 117 116 116 115 114 113 112 112 112 111
Wind_Direction
245 245 246 247 248 250 251 253 255 256 256 256 257 258 258 259 259 261 263 265 267 268 270 273 276 279 281 283 285 288 290 292 295 298 297 294 291 288 286 286 286 285 286 287 288 290 290 291 292 294 295 296 295 295 294 295 295 295 294 294 294 293 293 293 293 292 291 291 291 291 291 291 291 289 288 288 289 288 288 288 287 285 284 283 282 282
244 245 245 247 249 250 251 252 253 253 254 255 256 257 257 259 260 261 262 265 267 267 269 271 274 276 279 282 284 286 288 290 293 295 294 293 291 288 287 287 286 285 286 287 287 288 289 290 292 293 294 295 294 294 294 294 295 295 296 296 295 294 295 295 295 294 294 294 294 293 294 294 293 292 291 291 289 288 289 289 288 287 287 287 287 287
243 244 245 247 248 249 250 251 252 253 254 254 255 256 257 258 259 259 262 264 265 265 267 270 273 275 278 280 282 284 286 288 290 291 292 291 289 288 288 287 286 287 287 287 286 287 287 289 291 292 292 293 293 293 293 293 294 295 296 297 297 295 295 295 295 295 294 294 294 294 294 294 293 293 293 292 291 292 292 291 290 291 291 292 292 293
242 243 244 245 246 247 249 250 251 252 252 253 254 255 256 257 258 260 262 262 263 265 268 270 272 274 276 278 281 283 283 284 287 289 289 288 288 288 288 287 287 287 287 287 287 288 288 288 289 290 290 291 291 291 291 292 292 293 294 295 297 296 294 294 294 294 294 293 293 293 293 293 293 292 292 292 292 293 293 292 292 293 294 294 294 294
242 243 244 245 246 247 248 249 249 249 251 252 253 254 256 257 259 260 260 261 263 266 268 269 270 273 275 277 279 280 279 281 284 287 286 286 286 287 287 287 287 288 288 288 288 289 289 288 287 287 287 288 288 288 288 289 290 291 291 292 293 294 293 292 292 293 292 292 293 293 293 293 293 292 292 292 292 292 291 292 293 293 293 293 293 294
241 242 242 244 245 246 246 246 247 249 250 252 253 255 256 258 259 260 261 263 264 266 267 268 269 270 274 276 276 276 277 280 282 282 282 283 284 286 287 286 287 288 288 289 289 289 289 288 288 286 285 285 285 285 286 287 289 289 289 289 290 292 292 291 291 291 291 291 291 292 293 293 294 293 294 293 292 292 292 293 292 292 293 293 293 293
240 240 241 242 243 244 245 246 248 249 251 252 254 256 258 259 260 261 262 263 264 265 266 267 268 269 272 274 272 273 275 277 279 279 278 280 282 284 285 286 287 287 287 288 289 289 289 289 289 287 285 283 282 283 285 287 289 289 289 288 287 289 290 290 290 290 289 290 291 292 293 294 295 295 295 294 294 294 294 294 294 294 295 295 294 293
239 240 241 243 244 246 247 248 250 251 253 254 256 257 259 260 260 261 262 262 263 263 264 266 267 266 269 272 271 272 274 274 276 275 276 279 281 282 283 285 286 285 286 287 288 288 289 289 289 288 285 282 282 283 285 287 288 289 288 287 286 286 286 288 289 288 288 289 291 292 293 294 295 295 296 296 295 296 296 296 296 296 296 295 294 294
239 241 243 245 246 247 249 250 251 253 254 255 256 257 258 259 259 260 260 261 261 261 262 264 265 264 264 267 270 272 272 273 273 273 275 277 279 281 283 283 283 284 285 286 287 289 290 289 289 287 285 284 284 285 285 286 287 288 288 287 285 284 284 285 286 286 286 288 290 291 292 293 294 295 296 297 296 297 298 297 296 296 296 295 295 295
241 242 243 245 247 248 249 250 250 252 253 254 254 255 257 258 258 258 259 260 260 261 261 262 264 264 259 260 269 274 273 271 271 272 274 276 279 281 281 281 281 282 284 285 288 290 290 290 289 287 285 285 286 287 287 286 286 287 287 286 284 283 282 282 283 283 284 286 288 290 291 293 294 295 296 296 297 298 299 298 296 295 295 295 296 296
242 243 244 246 247 248 248 249 249 251 252 253 253 254 256 257 258 258 259 260 261 261 261 261 262 261 257 255 264 272 273 271 271 274 275 275 277 278 278 279 280 281 283 285 288 289 289 290 289 288 288 288 288 289 288 287 287 288 287 285 283 282 281 281 280 280 281 284 287 289 291 292 293 294 295 295 297 298 298 297 296 295 294 295 296 296
242 243 245 246 247 247 247 248 249 250 251 252 253 254 256 257 258 259 260 261 263 261 259 258 259 260 260 253 256 266 271 271 273 274 275 275 276 277 278 279 279 280 283 286 288 288 289 289 289 289 289 289 289 289 287 287 287 288 288 286 283 281 280 281 281 280 280 284 287 289 290 291 292 293 293 293 294 296 296 295 294 294 294 295 295 295
241 241 243 245 246 247 248 249 250 251 252 252 253 254 256 257 258 260 261 261 262 260 258 258 258 260 261 252 252 262 267 268 271 273 275 276 277 277 278 278 279 281 283 285 286 287 287 288 287 288 288 289 289 289 288 288 288 288 288 287 285 282 280 280 282 283 283 285 287 289 290 292 293 293 292 292 292 293 292 293 294 295 295 295 294 294
243 243 244 246 248 249 250 251 251 252 252 252 253 254 255 257 259 260 262 262 262 260 259 258 258 260 259 253 252 257 259 262 268 273 277 279 279 279 278 278 279 281 284 285 285 285 286 286 287 288 289 291 291 291 291 290 289 288 288 287 285 284 282 281 282 285 287 287 288 290 291 292 293 294 293 292 292 291 291 291 293 294 294 294 294 294
245 246 246 247 248 250 250 250 251 251 252 253 253 255 256 258 260 261 261 261 260 259 258 258 258 258 256 253 254 256 257 258 261 268 274 278 280 281 281 282 283 285 287 286 286 286 286 287 288 289 291 292 293 293 292 291 290 290 289 288 286 285 285 284 284 285 287 288 289 290 291 292 293 293 292 292 293 292 291 291 292 293 294 294 294 294
245 245 246 246 247 248 249 249 250 251 252 254 254 256 257 258 259 259 258 258 258 258 258 259 260 259 255 255 257 258 256 254 256 261 266 269 273 277 280 283 285 287 286 285 285 285 286 287 288 289 291 293 293 293 292 292 291 291 290 289 288 287 286 285 285 286 286 287 288 290 291 291 292 291 291 292 293 292 291 290 291 292 293 293 293 293
244 244 244 244 245 247 248 249 250 251 252 254 255 256 257 256 257 258 259 259 260 261 262 262 262 260 256 255 256 255 253 254 256 258 260 263 268 272 275 278 280 282 281 281 283 284 285 286 286 288 290 292 292 292 291 291 291 291 291 291 291 290 288 287 286 287 287 287 288 289 290 290 290 289 289 291 292 291 289 289 289 290 291 291 291 291
243 244 243 244 245 247 248 250 251 252 253 254 256 257 257 256 258 259 260 260 261 263 262 261 260 258 255 255 254 252 252 254 257 258 260 263 267 269 271 273 275 276 276 278 280 281 283 284 285 287 288 289 289 288 289 289 290 290 290 291 292 292 291 289 288 288 288 288 289 289 289 289 289 288 288 289 290 289 288 287 287 288 289 289 289 289
244 244 244 245 246 248 249 250 251 253 254 255 256 257 256 257 258 259 260 260 260 261 260 258 258 258 257 258 255 252 253 255 257 259 262 264 265 267 268 270 271 272 273 275 276 277 279 281 284 285 285 285 284 285 285 286 287 288 288 290 291 291 290 290 289 288 288 289 289 290 289 289 288 287 287 288 288 287 286 286 286 286 287 288 288 288
244 245 245 245 246 247 249 251 253 254 255 255 255 255 256 257 258 258 259 260 260 261 261 260 259 260 261 260 258 256 255 255 257 259 261 262 263 264 266 266 268 270 272 273 274 276 278 279 280 281 281 281 281 282 283 284 285 286 288 290 291 290 290 289 288 288 288 288 289 289 289 289 288 287 288 288 288 287 286 285 286 286 286 287 287 287
245 245 246 246 246 247 250 252 254 254 254 254 254 255 256 257 258 259 260 261 261 262 263 263 262 263 262 260 259 259 257 256 257 258 259 261 261 262 263 264 266 268 271 273 274 276 276 277 278 278 278 278 279 280 282 283 285 287 289 290 289 288 289 288 288 288 288 287 287 288 289 288 288 288 289 289 288 287 287 287 287 286 286 286 286 287
245 245 245 245 245 246 248 250 251 252 253 254 255 255 256 257 258 260 261 262 263 263 264 264 263 262 260 258 259 259 258 258 258 258 258 259 259 260 262 264 266 268 270 272 273 274 274 275 275 276 277 278 279 280 282 284 286 287 289 289 288 287 287 287 288 288 288 287 287 287 287 288 288 289 289 289 289 289 289 289 289 288 288 287 288 288
246 245 245 245 245 246 246 247 249 251 253 254 255 256 256 257 258 260 261 261 261 262 263 264 264 262 258 258 258 258 259 258 258 258 258 258 259 260 262 264 266 268 269 270 271 272 272 273 274 276 278 279 280 281 282 284 286 287 288 288 287 286 286 287 288 289 289 288 288 288 288 287 288 288 289 289 289 289 290 290 290 289 289 289 289 289
247 247 247 247 246 246 246 247 249 251 252 254 255 256 256 257 258 259 259 259 260 261 262 263 265 263 258 256 257 258 259 259 259 259 260 260 261 262 263 264 265 266 267 268 269 270 270 272 275 279 281 281 281 281 283 284 286 286 286 286 286 286 286 288 289 290 290 289 289 288 288 287 287 288 288 288 289 289 290 290 290 289 289 289 289 289
249 249 250 249 249 248 248 249 249 250 252 253 254 255 256 257 257 257 258 259 259 260 261 262 264 263 257 255 257 257 259 261 261 261 261 262 263 264 264 264 265 265 266 266 268 270 272 276 279 281 281 280 281 282 283 284 285 285 285 285 285 286 287 289 290 290 290 289 288 287 287 287 287 287 288 288 288 289 289 289 289 288 289 289 289 289
249 250 250 251 251 252 252 252 251 251 252 253 254 254 255 256 257 257 258 258 259 261 262 263 265 263 259 257 259 260 260 261 262 262 262 262 263 264 264 264 264 265 265 266 268 272 275 278 279 280 280 280 281 282 282 282 283 283 284 284 286 287 288 290 290 290 289 288 287 286 286 286 287 287 287 288 289 289 289 289 288 288 288 289 289 289
249 250 251 252 252 253 253 252 252 252 253 254 254 255 255 256 257 258 258 259 261 262 262 264 265 264 261 259 259 260 261 261 261 262 263 263 263 263 264 265 265 266 266 267 270 273 276 277 278 279 279 279 280 280 281 281 282 283 285 286 287 287 288 289 289 288 287 286 285 285 285 286 287 287 288 288 289 289 289 288 288 289 289 289 290 290
249 250 250 251 252 251 252 252 252 252 252 253 254 254 255 255 256 258 259 261 262 262 263 265 265 266 265 262 260 262 263 263 263 264 264 264 265 265 266 266 266 266 268 270 272 275 276 276 276 276 277 278 279 280 281 282 283 284 285 286 286 286 287 287 287 286 285 284 284 284 286 287 288 288 289 289 289 289 289 289 289 290 290 290 290 290
249 249 250 250 251 250 251 251 252 251 251 251 252 253 254 255 256 257 259 262 263 264 265 265 265 267 268 266 264 264 264 264 264 264 263 264 264 264 265 265 267 268 270 272 273 274 274 275 275 276 277 279 280 281 282 282 283 284 284 284 284 284 285 285 285 285 283 282 283 285 286 288 288 289 289 290 290 290 289 289 289 290 290 290 290 290
249 250 250 251 251 251 251 251 252 252 252 252 252 253 254 255 256 258 260 262 263 265 265 265 264 265 267 267 265 262 262 262 262 262 262 263 264 265 266 266 267 269 270 271 272 272 273 275 276 277 278 278 279 280 280 281 282 282 283 283 283 283 284 284 284 283 282 282 284 285 286 287 288 288 288 288 288 288 288 288 289 289 288 288 288 289
251 251 251 252 252 252 252 252 253 253 253 252 252 252 253 254 256 259 260 261 262 263 264 264 264 264 265 266 265 262 262 262 262 263 264 265 266 267 267 267 268 269 270 271 271 272 273 275 276 277 277 277 278 279 280 281 281 282 282 282 283 283 283 284 283 282 282 283 284 285 285 286 286 286 286 286 286 286 287 287 287 287 287 287 287 288
251 252 252 253 253 253 253 254 254 254 254 253 252 252 254 255 257 258 259 260 260 262 263 263 264 265 265 264 264 264 264 265 265 265 264 265 265 266 267 269 270 271 270 270 271 272 273 274 275 276 277 277 278 279 280 281 281 282 282 282 283 283 284 284 283 283 283 283 284 285 285 285 284 284 284 284 284 285 285 286 286 286 287 287 287 287
251 252 253 253 254 254 254 254 255 255 255 254 254 254 255 256 256 256 257 259 260 262 263 264 265 265 264 263 264 266 266 265 265 264 263 264 266 267 269 270 270 270 270 270 271 272 273 274 275 276 277 278 279 279 280 280 281 281 282 282 283 283 283 284 283 283 283 283 284 284 284 283 283 283 283 283 284 284 285 285 285 286 286 287 287 287
252 252 253 253 254 254 254 255 255 255 256 256 257 257 257 257 257 257 257 259 260 261 262 263 264 264 263 263 263 264 264 264 265 264 265 266 267 268 268 268 268 269 270 271 272 273 273 274 275 276 277 278 279 279 280 280 281 281 282 282 282 283 283 283 283 282 282 282 282 282 282 282 282 282 283 283 283 283 284 284 284 285 285 286 286 286
254 254 254 254 255 255 255 255 256 256 257 258 258 258 258 258 259 259 259 259 260 260 261 261 262 262 263 263 263 264 264 265 265 265 266 267 268 267 267 267 268 269 270 271 272 273 274 275 276 276 277 278 279 279 280 280 281 281 281 282 282 282 282 282 281 281 281 281 280 280 280 280 280 281 281 282 282 283 283 283 283 284 284 284 284 284
255 256 257 257 257 256 256 256 257 258 258 258 258 258 259 260 260 261 261 260 260 260 261 261 261 262 262 263 263 263 263 263 264 265 266 267 268 268 268 268 269 270 271 272 273 274 275 276 277 277 277 278 278 279 279 280 280 281 281 281 281 281 281 281 280 280 279 279 279 278 278 278 279 279 280 280 281 281 281 282 282 282 282 282 283 283
255 256 257 258 258 258 258 257 257 258 258 257 258 260 261 262 262 262 262 261 260 261 261 262 262 262 262 262 262 262 262 262 263 264 266 267 268 268 269 270 271 271 272 273 274 275 275 275 276 276 277 277 277 278 278 279 279 279 280 279 279 279 278 278 278 277 277 277 277 277 277 277 277 278 279 279 279 280 280 280 281 281 281 281 282 282
256 256 256 257 257 258 259 258 258 258 258 258 259 260 261 261 262 262 262 262 261 262 262 263 263 263 263 263 263 263 263 263 264 265 266 266 266 267 268 269 270 271 271 272 273 273 274 274 274 275 276 276 277 277 277 277 278 278 278 277 277 276 276 276 276 276 276 276 276 276 276 276 277 277 278 278 278 278 279 279 280 280 280 281 281 281
257 258 258 258 258 258 259 259 259 259 260 260 260 260 261 261 261 261 261 261 260 261 262 263 263 264 264 265 265 265 265 265 266 266 265 265 266 267 268 269 269 270 270 271 271 272 272 273 273 274 275 275 275 275 276 276 276 276 276 275 275 275 275 275 274 274 274 275 275 275 275 276 276 276 276 277 277 277 278 278 279 279 279 280 280 281
256 257 258 260 261 261 262 262 261 260 260 259 259 260 261 262 262 262 262 261 261 261 262 263 263 264 265 265 265 266 266 266 266 266 265 266 267 268 269 269 269 270 270 271 271 271 271 272 273 273 274 274 274 275 275 275 275 274 274 274 274 274 274 274 274 274 274 274 274 274 274 274 274 275 275 275 276 277 277 277 277 278 279 279 280 281
257 257 258 259 261 262 263 264 264 263 262 261 260 260 259 260 261 262 264 264 265 266 266 266 265 265 265 265 265 265 266 266 266 265 265 266 267 269 269 269 269 269 270 270 271 271 270 271 271 272 272 273 273 274 274 274 273 273 273 273 273 273 273 274 274 274 274 274 274 274 274 274 274 274 274 275 275 276 276 277 277 277 278 279 279 280
257 258 259 259 260 261 262 263 264 265 265 265 265 264 262 261 261 263 265 266 267 268 268 267 267 267 267 267 267 267 267 267 267 266 265 265 266 268 269 269 269 269 270 270 271 271 271 270 270 270 270 270 270 271 271 271 271 271 271 271 271 271 272 273 273 273 273 273 274 274 274 274 274 274 274 275 276 276 277 277 277 277 278 278 278 279
256 257 258 259 261 262 262 263 264 265 265 266 267 267 266 266 265 265 266 267 268 268 268 267 267 267 268 269 269 270 270 270 269 269 268 267 267 268 269 269 270 270 270 271 271 272 272 271 271 270 270 270 269 269 270 270 270 271 271 271 271 271 271 272 273 273 273 273 274 274 275 275 275 275 275 276 276 277 278 278 278 278 278 279 279 279
256 257 258 259 260 261 262 263 264 266 266 267 267 267 267 268 268 269 269 269 270 270 270 270 270 269 269 270 271 272 272 272 272 272 271 271 270 270 271 271 272 272 272 273 273 273 273 273 272 272 272 272 272 272 272 272 272 272 272 272 272 272 272 273 273 273 274 274 275 275 276 276 276 276 276 277 277 278 279 279 280 280 280 280 281 281
256 257 258 259 259 260 262 263 264 265 266 266 267 267 267 268 268 268 269 270 271 271 272 272 273 273 272 272 273 274 275 275 275 275 275 274 274 273 274 274 275 275 276 276 276 276 275 275 275 275 275 275 276 277 277 277 276 276 275 274 274 273 273 274 274 275 275 275 276 276 277 277 277 277 277 278 278 279 280 280 281 281 282 282 283 283
256 256 257 258 258 260 261 262 263 264 265 266 266 266 266 266 267 267 268 268 269 269 270 271 272 273 274 275 275 276 277 277 277 277 277 277 277 277 277 277 278 278 278 279 279 279 280 280 280 279 279 279 279 279 280 280 280 280 279 279 278 277 276 276 276 276 277 277 278 278 279 279 279 279 280 280 280 281 282 282 282 283 283 284 284 284
256 256 257 258 258 259 260 261 262 263 264 264 265 265 265 265 266 267 267 267 267 267 268 269 270 271 272 273 274 274 275 276 276 277 277 277 278 278 279 279 279 280 280 281 281 282 282 282 282 282 282 282 282 282 282 282 282 283 282 282 282 281 280 280 279 279 280 280 280 281 281 281 282 282 282 282 283 283 284 284 284 285 285 285 286 286
255 256 256 257 258 258 259 260 261 262 263 263 263 264 264 265 265 266 267 267 267 267 267 268 269 269 269 270 271 272 272 273 273 274 274 275 276 277 278 278 279 280 281 281 282 282 282 282 283 283 283 283 283 283 283 284 284 284 284 284 284 284 283 283 283 283 283 283 283 283 284 284 284 284 284 285 285 285 285 285 285 286 286 287 287 288
254 255 256 256 257 258 258 259 259 260 260 261 261 262 263 264 264 265 265 266 267 267 268 268 268 268 269 269 269 270 271 271 272 272 273 273 274 275 275 276 277 278 278 279 280 280 280 281 281 281 282 282 282 283 283 284 284 285 285 285 285 285 285 285 285 285 285 285 285 285 285 285 286 286 286 285 285 285 285 285 285 286 286 287 287 287
254 255 256 256 257 257 258 258 258 258 258 259 260 261 261 262 263 263 264 265 266 266 267 267 268 268 269 269 269 270 270 271 272 272 272 273 274 274 274 275 276 276 277 277 277 278 278 279 279 279 280 280 281 281 282 283 283 283 283 284 284 284 284 284 285 285 285 285 285 285 285 285 285 285 285 284 284 284 284 285 285 285 286 286 286 286
254 255 256 257 257 257 257 258 258 258 259 259 259 260 261 261 262 263 263 264 264 265 265 266 266 267 268 268 269 270 270 271 271 272 272 273 273 274 274 275 275 276 276 276 277 277 277 278 278 278 279 279 280 280 281 281 281 281 282 282 282 283 283 283 283 284 284 284 284 283 283 283 283 283 283 283 283 283 283 284 284 284 284 284 284 285
Height
10741 10745 10748 10749 10748 10750 10754 10756 10760 10764 10764 10763 10764 10766 10768 10770 10775 10779 10778 10779 10784 10785 10785 10787 10789 10789 10791 10793 10793 10794 10794 10794 10795 10796 10796 10795 10795 10794 10794 10795 10795 10795 10795 10796 10796 10794 10792 10792 10791 10790 10789 10788 10787 10785 10784 10782 10780 10779 10777 10777 10777 10776 10775 10773 10773 10772 10771 10770 10769 10767 10766 10765 10764 10763 10761 10759 10758 10757 10755 10755 10754 10753 10752 10751 10751 10749
10736 10740 10742 10742 10744 10747 10749 10751 10755 10757 10757 10758 10759 10761 10763 10765 10771 10774 10773 10775 10780 10780 10780 10783 10786 10786 10786 10789 10790 10791 10791 10790 10791 10792 10792 10791 10791 10790 10791 10791 10791 10791 10792 10793 10793 10792 10790 10789 10789 10788 10787 10785 10784 10782 10780 10779 10777 10775 10773 10772 10772 10772 10771 10769 10768 10767 10767 10766 10765 10763 10762 10760 10759 10758 10757 10756 10754 10754 10753 10751 10750 10749 10747 10747 10746 10745
10732 10734 10735 10737 10740 10741 10743 10746 10750 10752 10752 10753 10753 10755 10758 10761 10766 10768 10770 10773 10775 10775 10776 10779 10782 10782 10783 10785 10785 10787 10787 10786 10787 10788 10787 10787 10786 10786 10787 10787 10787 10787 10788 10789 10789 10788 10787 10786 10786 10785 10784 10782 10781 10779 10777 10776 10775 10773 10771 10768 10767 10767 10767 10766 10764 10763 10763 10762 10761 10760 10759 10757 10755 10754 10753 10751 10749 10749 10749 10747 10746 10745 10743 10742 10741 10741
10726 10727 10730 10733 10733 10734 10738 10743 10747 10747 10746 10746 10747 10750 10753 10755 10760 10765 10767 10767 10768 10770 10773 10775 10779 10779 10779 10781 10781 10783 10784 10782 10783 10784 10783 10782 10782 10783 10784 10783 10783 10783 10784 10784 10785 10785 10784 10783 10783 10782 10781 10779 10778 10776 10774 10773 10772 10770 10769 10766 10764 10762 10762 10762 10761 10759 10758 10757 10757 10756 10755 10754 10752 10750 10749 10748 10746 10745 10745 10742 10741 10740 10739 10738 10737 10736
10720 10723 10726 10727 10727 10730 10735 10739 10740 10740 10739 10740 10742 10745 10747 10749 10756 10761 10761 10761 10763 10767 10769 10771 10775 10776 10775 10777 10778 10778 10779 10778 10779 10780 10778 10777 10778 10779 10780 10779 10779 10779 10779 10780 10781 10781 10780 10779 10779 10779 10778 10776 10775 10773 10771 10770 10769 10768 10766 10764 10762 10759 10758 10758 10757 10755 10754 10753 10752 10752 10750 10749 10748 10747 10745 10744 10743 10742 10741 10739 10738 10737 10735 10734 10733 10732
10715 10719 10720 10721 10721 10724 10729 10731 10731 10732 10733 10734 10736 10739 10742 10745 10751 10754 10755 10758 10759 10763 10765 10766 10772 10773 10770 10774 10774 10771 10774 10775 10775 10776 10773 10772 10774 10775 10775 10775 10775 10774 10774 10774 10776 10777 10776 10774 10774 10775 10774 10773 10772 10770 10769 10767 10767 10765 10763 10761 10759 10757 10754 10754 10753 10751 10751 10749 10748 10747 10746 10745 10744 10742 10741 10740 10739 10738 10737 10736 10734 10733 10731 10730 10729 10727
10710 10713 10712 10712 10713 10716 10721 10724 10725 10726 10727 10728 10732 10735 10737 10741 10746 10748 10751 10754 10754 10758 10760 10760 10768 10772 10768 10769 10767 10765 10771 10772 10770 10770 10767 10768 10771 10772 10772 10770 10769 10769 10769 10769 10770 10771 10772 10771 10770 10769 10769 10769 10768 10767 10766 10764 10763 10762 10760 10758 10756 10754 10751 10750 10749 10748 10747 10746 10744 10743 10742 10740 10739 10738 10736 10735 10734 10733 10733 10732 10730 10728 10727 10725 10724 10722
10702 10704 10704 10703 10706 10711 10715 10718 10720 10720 10721 10725 10728 10729 10731 10735 10739 10742 10745 10748 10749 10752 10755 10757 10763 10769 10768 10763 10758 10761 10768 10768 10765 10763 10762 10764 10767 10768 10768 10765 10764 10764 10764 10764 10765 10766 10767 10767 10766 10765 10764 10764 10764 10763 10762 10761 10760 10758 10756 10754 10753 10751 10748 10746 10745 10744 10743 10742 10741 10739 10738 10736 10735 10733 10732 10730 10729 10729 10729 10728 10726 10724 10722 10720 10718 10717
10694 10697 10698 10698 10701 10706 10710 10713 10715 10714 10716 10720 10722 10723 10724 10726 10732 10735 10737 10741 10742 10746 10752 10754 10756 10765 10769 10759 10749 10755 10764 10763 10758 10756 10757 10760 10762 10763 10763 10761 10759 10758 10758 10759 10760 10760 10761 10762 10762 10761 10759 10759 10759 10759 10758 10757 10756 10755 10752 10750 10749 10747 10745 10743 10742 10740 10739 10738 10737 10735 10733 10732 10730 10729 10727 10725 10724 10724 10724 10723 10721 10720 10718 10716 10713 10711
10689 10691 10691 10692 10695 10700 10704 10706 10708 10707 10709 10713 10716 10717 10716 10718 10725 10727 10729 10733 10735 10742 10751 10751 10749 10757 10767 10759 10747 10749 10757 10756 10751 10750 10753 10755 10756 10758 10758 10756 10754 10753 10753 10754 10755 10755 10755 10756 10756 10755 10754 10754 10754 10754 10754 10753 10752 10751 10749 10746 10745 10743 10742 10739 10738 10736 10735 10733 10732 10730 10729 10728 10726 10725 10723 10721 10719 10719 10719 10717 10716 10715 10713 10711 10708 10706
10684 10684 10685 10688 10689 10693 10696 10697 10699 10700 10703 10706 10708 10710 10709 10711 10715 10718 10722 10724 10728 10740 10748 10745 10743 10748 10760 10762 10752 10746 10746 10746 10744 10744 10746 10749 10751 10752 10751 10750 10750 10749 10749 10750 10750 10750 10749 10750 10750 10749 10749 10749 10749 10749 10748 10748 10747 10746 10744 10742 10740 10739 10737 10735 10733 10732 10730 10729 10728 10726 10725 10723 10722 10720 10719 10717 10715 10714 10714 10712 10710 10709 10707 10706 10704 10701
10676 10677 10679 10680 10680 10684 10686 10689 10691 10693 10697 10700 10700 10702 10703 10704 10706 10710 10716 10718 10724 10735 10740 10738 10737 10741 10754 10762 10755 10746 10741 10738 10737 10736 10737 10741 10744 10745 10745 10745 10744 10744 10745 10745 10745 10744 10743 10744 10743 10743 10744 10744 10744 10744 10743 10743 10742 10741 10739 10738 10736 10735 10733 10730 10728 10727 10726 10725 10724 10723 10720 10719 10718 10717 10714 10713 10711 10710 10709 10708 10706 10704 10702 10700 10699 10696
10666 10668 10670 10670 10672 10677 10679 10682 10684 10686 10691 10693 10693 10695 10695 10696 10698 10702 10709 10713 10718 10725 10730 10733 10733 10738 10751 10756 10752 10749 10743 10733 10729 10727 10729 10734 10736 10738 10738 10737 10737 10739 10740 10740 10740 10739 10738 10738 10737 10737 10738 10739 10739 10738 10738 10737 10737 10736 10735 10733 10732 10730 10728 10726 10723 10722 10722 10722 10720 10718 10716 10714 10713 10712 10710 10708 10707 10705 10704 10703 10702 10699 10697 10695 10693 10691
10658 10662 10666 10668 10669 10671 10673 10676 10678 10678 10680 10683 10685 10685 10686 10688 10691 10699 10704 10706 10710 10716 10722 10726 10728 10738 10748 10748 10746 10748 10743 10734 10726 10721 10720 10723 10726 10729 10730 10730 10731 10734 10734 10734 10733 10733 10732 10731 10730 10731 10732 10732 10732 10732 10732 10731 10730 10730 10729 10729 10727 10725 10724 10722 10720 10717 10716 10716 10715 10713 10711 10709 10708 10707 10705 10703 10702 10700 10698 10698 10697 10694 10692 10690 10688 10686
10654 10658 10663 10664 10663 10662 10664 10667 10667 10666 10668 10673 10677 10677 10681 10685 10689 10695 10697 10697 10701 10707 10712 10717 10724 10737 10743 10740 10740 10742 10740 10736 10730 10723 10718 10715 10715 10716 10717 10718 10721 10725 10726 10725 10725 10724 10724 10724 10723 10723 10724 10726 10726 10725 10725 10724 10724 10724 10724 10723 10722 10720 10719 10717 10715 10713 10712 10711 10710 10708 10706 10704 10702 10701 10698 10697 10696 10695 10692 10691 10690 10688 10686 10684 10682 10681
10645 10649 10653 10653 10652 10652 10653 10655 10655 10656 10661 10667 10668 10671 10679 10684 10683 10683 10685 10688 10692 10696 10704 10711 10721 10733 10735 10734 10736 10735 10734 10733 10730 10727 10721 10715 10712 10710 10709 10709 10711 10714 10715 10714 10715 10715 10715 10716 10716 10715 10716 10719 10719 10718 10718 10717 10717 10717 10717 10717 10717 10715 10714 10712 10710 10708 10707 10706 10704 10703 10700 10698 10696 10695 10692 10690 10690 10689 10686 10684 10683 10682 10680 10678 10676 10674
10634 10637 10640 10641 10643 10644 10644 10644 10645 10649 10656 10659 10660 10666 10676 10677 10673 10671 10676 10683 10684 10688 10700 10708 10715 10725 10727 10728 10732 10728 10727 10727 10725 10724 10720 10716 10714 10711 10709 10707 10706 10708 10708 10707 10707 10707 10708 10709 10709 10709 10709 10711 10712 10711 10711 10710 10709 10710 10710 10711 10711 10709 10708 10706 10705 10703 10701 10700 10698 10697 10695 10692 10689 10688 10686 10685 10684 10683 10681 10678 10676 10675 10674 10672 10670 10667
10622 10623 10629 10633 10636 10638 10638 10636 10638 10643 10650 10654 10657 10663 10666 10666 10666 10666 10669 10676 10678 10681 10694 10700 10706 10714 10716 10722 10728 10723 10720 10721 10719 10717 10715 10715 10714 10711 10709 10705 10702 10702 10702 10702 10703 10702 10702 10702 10703 10704 10704 10704 10704 10704 10704 10704 10703 10703 10703 10705 10705 10703 10701 10700 10699 10697 10695 10693 10692 10690 10688 10685 10683 10681 10680 10678 10677 10676 10674 10673 10671 10668 10666 10665 10664 10661
10610 10614 10622 10629 10632 10633 10631 10628 10631 10638 10645 10651 10655 10655 10654 10657 10662 10660 10660 10667 10670 10671 10681 10691 10696 10703 10710 10718 10721 10716 10714 10714 10712 10711 10711 10711 10709 10707 10705 10701 10697 10696 10696 10697 10698 10697 10697 10697 10698 10699 10699 10699 10698 10697 10698 10698 10697 10696 10697 10699 10699 10696 10694 10693 10692 10691 10688 10686 10684 10682 10680 10678 10676 10675 10673 10672 10670 10669 10666 10665 10664 10662 10660 10658 10657 10654
10601 10607 10615 10622 10625 10624 10621 10623 10630 10637 10640 10643 10646 10645 10646 10650 10653 10652 10652 10657 10660 10661 10670 10682 10687 10697 10709 10712 10709 10707 10707 10707 10707 10707 10706 10704 10702 10700 10698 10695 10692 10690 10690 10690 10691 10691 10692 10692 10692 10692 10692 10692 10692 10691 10691 10691 10690 10690 10691 10692 10693 10689 10687 10686 10685 10683 10681 10679 10677 10674 10671 10670 10669 10668 10666 10664 10663 10661 10659 10657 10657 10655 10653 10651 10649 10646
10592 10600 10608 10615 10618 10618 10620 10625 10629 10628 10627 10631 10635 10637 10641 10643 10643 10643 10645 10649 10650 10652 10662 10670 10678 10696 10707 10702 10698 10700 10699 10699 10700 10701 10699 10696 10695 10692 10689 10688 10687 10686 10684 10684 10685 10685 10685 10684 10683 10683 10684 10684 10684 10683 10684 10684 10684 10684 10685 10686 10685 10682 10679 10677 10676 10676 10674 10672 10670 10667 10663 10661 10660 10659 10658 10656 10654 10653 10651 10649 10648 10647 10645 10643 10641 10639
10584 10592 10598 10602 10609 10615 10618 10620 10617 10614 10616 10621 10625 10630 10636 10637 10634 10634 10638 10643 10644 10644 10652 10656 10665 10692 10702 10691 10690 10692 10689 10690 10691 10690 10690 10687 10685 10683 10681 10681 10681 10680 10680 10680 10679 10678 10677 10676 10675 10674 10675 10676 10676 10675 10675 10677 10677 10678 10679 10679 10677 10674 10672 10669 10668 10667 10666 10664 10662 10660 10657 10654 10652 10651 10650 10648 10646 10644 10643 10641 10639 10638 10637 10635 10633 10630
10571 10577 10584 10591 10601 10608 10610 10610 10608 10607 10609 10612 10616 10624 10629 10628 10628 10627 10629 10635 10633 10633 10643 10643 10649 10684 10698 10683 10680 10684 10680 10681 10681 10678 10678 10676 10674 10676 10676 10675 10675 10674 10674 10673 10671 10670 10668 10667 10666 10666 10668 10669 10667 10666 10667 10669 10670 10671 10672 10670 10668 10665 10663 10662 10661 10659 10657 10655 10653 10651 10650 10648 10645 10643 10642 10640 10638 10636 10634 10633 10630 10628 10628 10626 10624 10622
10560 10566 10576 10585 10592 10597 10600 10603 10603 10602 10603 10606 10612 10618 10618 10618 10622 10618 10616 10621 10621 10624 10636 10632 10635 10672 10692 10675 10670 10675 10671 10670 10671 10668 10668 10666 10665 10667 10668 10668 10668 10667 10665 10664 10663 10661 10658 10657 10659 10661 10662 10662 10659 10658 10659 10661 10663 10663 10663 10661 10659 10657 10656 10657 10655 10651 10648 10645 10644 10642 10640 10638 10637 10635 10633 10632 10631 10629 10627 10625 10622 10620 10619 10617 10615 10613
10553 10559 10567 10573 10578 10586 10594 10598 10598 10598 10599 10602 10607 10608 10606 10608 10609 10605 10605 10608 10608 10616 10628 10623 10625 10659 10679 10666 10660 10665 10663 10661 10662 10661 10660 10657 10656 10658 10659 10659 10659 10657 10656 10655 10653 10652 10652 10651 10652 10655 10655 10652 10651 10651 10652 10654 10654 10654 10654 10652 10650 10649 10650 10651 10649 10644 10638 10635 10634 10633 10630 10628 10627 10626 10624 10623 10622 10621 10619 10616 10614 10612 10610 10608 10606 10604
10545 10549 10556 10563 10569 10581 10592 10592 10590 10594 10593 10593 10597 10598 10598 10597 10594 10593 10595 10593 10597 10610 10617 10614 10619 10644 10664 10660 10653 10654 10655 10653 10652 10651 10651 10649 10646 10647 10647 10648 10649 10647 10645 10645 10645 10645 10647 10647 10645 10646 10645 10643 10643 10644 10644 10644 10645 10645 10645 10645 10644 10643 10643 10644 10642 10636 10629 10624 10623 10622 10620 10618 10617 10616 10615 10614 10613 10611 10609 10606 10604 10602 10601 10599 10597 10595
10535 10540 10548 10555 10561 10573 10582 10577 10577 10586 10587 10584 10589 10591 10588 10586 10583 10580 10580 10583 10594 10603 10602 10606 10614 10628 10648 10653 10645 10644 10644 10641 10642 10642 10640 10638 10636 10636 10637 10637 10638 10636 10634 10637 10640 10639 10639 10640 10639 10636 10635 10634 10634 10634 10634 10634 10636 10637 10637 10637 10637 10636 10636 10636 10634 10627 10620 10614 10612 10611 10610 10608 10607 10606 10606 10606 10605 10603 10600 10597 10594 10593 10591 10589 10587 10585
10525 10531 10540 10545 10550 10560 10565 10560 10563 10575 10578 10576 10578 10579 10577 10575 10573 10568 10568 10578 10590 10588 10589 10605 10610 10610 10627 10641 10641 10640 10634 10629 10632 10632 10627 10626 10626 10626 10627 10627 10627 10626 10626 10629 10633 10632 10629 10629 10630 10628 10626 10624 10623 10624 10625 10625 10627 10628 10628 10628 10628 10627 10627 10626 10624 10618 10611 10605 10602 10601 10601 10600 10599 10596 10595 10595 10595 10594 10592 10588 10585 10583 10582 10580 10577 10574
10516 10521 10530 10532 10536 10545 10549 10547 10550 10560 10566 10565 10566 10568 10567 10564 10564 10562 10565 10575 10579 10575 10583 10600 10601 10596 10609 10627 10637 10635 10623 10617 10620 10617 10613 10615 10614 10613 10615 10616 10617 10619 10618 10619 10621 10621 10617 10616 10619 10620 10618 10615 10614 10616 10617 10616 10616 10618 10618 10617 10616 10615 10616 10616 10614 10609 10602 10595 10593 10592 10592 10592 10590 10587 10585 10583 10583 10583 10581 10578 10576 10573 10572 10570 10567 10565
10503 10511 10520 10520 10522 10530 10536 10538 10540 10545 10551 10554 10556 10558 10557 10555 10555 10558 10565 10573 10572 10566 10571 10582 10585 10590 10601 10612 10620 10619 10609 10604 10606 10603 10601 10603 10602 10603 10605 10607 10609 10609 10608 10609 10609 10609 10607 10606 10607 10609 10610 10608 10606 10607 10607 10607 10606 10606 10606 10605 10605 10604 10605 10606 10605 10600 10591 10587 10587 10586 10585 10583 10581 10578 10575 10573 10572 10572 10570 10568 10565 10563 10561 10559 10557 10555
10494 10501 10509 10509 10508 10515 10525 10530 10530 10532 10535 10539 10543 10546 10547 10548 10553 10558 10563 10566 10561 10556 10558 10563 10568 10583 10598 10597 10593 10596 10596 10591 10590 10593 10594 10593 10593 10593 10592 10593 10597 10599 10599 10599 10597 10597 10599 10599 10598 10598 10598 10598 10597 10597 10597 10597 10596 10595 10594 10593 10593 10593 10594 10596 10596 10591 10583 10580 10579 10579 10577 10575 10572 10569 10566 10564 10562 10561 10560 10557 10555 10552 10550 10548 10546 10544
10487 10491 10495 10496 10494 10503 10516 10518 10516 10518 10517 10516 10525 10536 10542 10547 10552 10555 10553 10549 10547 10547 10549 10552 10556 10573 10589 10581 10569 10578 10586 10579 10577 10582 10582 10581 10582 10579 10578 10582 10585 10586 10587 10586 10584 10586 10589 10590 10588 10587 10587 10587 10587 10588 10588 10586 10585 10585 10584 10582 10582 10582 10583 10584 10584 10581 10576 10573 10570 10569 10568 10565 10563 10560 10557 10555 10553 10551 10550 10548 10544 10542 10539 10537 10534 10532
10478 10480 10482 10481 10479 10492 10506 10504 10501 10502 10492 10494 10517 10536 10539 10540 10542 10542 10539 10537 10541 10543 10540 10542 10548 10558 10568 10565 10561 10568 10572 10563 10560 10565 10567 10570 10572 10569 10569 10572 10571 10570 10571 10571 10573 10576 10578 10579 10579 10578 10577 10577 10577 10577 10577 10575 10574 10574 10572 10572 10572 10573 10572 10573 10572 10570 10567 10563 10560 10558 10556 10554 10552 10550 10547 10546 10544 10542 10540 10538 10535 10532 10529 10526 10523 10520
10464 10466 10470 10469 10467 10479 10493 10491 10485 10479 10472 10488 10518 10529 10525 10526 10526 10527 10530 10534 10537 10535 10529 10529 10534 10538 10544 10550 10553 10554 10553 10547 10543 10549 10557 10562 10561 10558 10556 10556 10557 10558 10558 10560 10563 10566 10566 10568 10569 10568 10568 10567 10565 10564 10565 10564 10563 10562 10561 10561 10561 10561 10561 10561 10560 10559 10556 10552 10550 10547 10545 10542 10540 10538 10537 10535 10533 10531 10529 10527 10525 10522 10519 10516 10512 10509
10449 10452 10456 10458 10458 10466 10478 10476 10464 10460 10470 10492 10508 10510 10509 10514 10514 10513 10520 10525 10525 10522 10517 10514 10516 10522 10527 10534 10539 10540 10539 10533 10529 10536 10549 10551 10546 10541 10539 10542 10546 10547 10548 10551 10553 10554 10554 10556 10557 10558 10558 10555 10553 10552 10552 10551 10550 10550 10550 10550 10549 10548 10548 10547 10547 10546 10543 10541 10539 10536 10533 10531 10529 10527 10526 10524 10522 10520 10518 10516 10514 10511 10508 10505 10502 10499
10438 10441 10442 10445 10445 10450 10461 10461 10451 10453 10470 10482 10488 10495 10502 10504 10503 10501 10501 10507 10510 10506 10501 10499 10501 10510 10516 10519 10525 10526 10521 10514 10516 10529 10542 10541 10530 10520 10519 10530 10538 10536 10537 10542 10542 10542 10544 10544 10544 10545 10545 10543 10541 10540 10539 10539 10537 10537 10538 10538 10537 10536 10534 10533 10533 10532 10530 10528 10527 10524 10521 10519 10517 10516 10515 10513 10510 10509 10507 10505 10503 10500 10497 10494 10491 10488
10428 10429 10429 10429 10430 10434 10441 10446 10445 10445 10453 10466 10480 10494 10497 10492 10489 10483 10474 10482 10493 10492 10488 10488 10489 10495 10501 10504 10507 10507 10500 10496 10507 10527 10538 10530 10513 10503 10505 10520 10527 10524 10525 10529 10529 10530 10532 10530 10530 10531 10530 10530 10530 10528 10527 10526 10525 10526 10526 10525 10524 10522 10521 10521 10519 10517 10516 10516 10514 10512 10509 10506 10505 10503 10502 10501 10499 10497 10495 10493 10491 10488 10485 10482 10479 10476
10412 10414 10417 10415 10416 10421 10423 10427 10432 10431 10440 10463 10483 10490 10485 10476 10472 10464 10451 10459 10477 10480 10474 10473 10473 10476 10483 10487 10489 10488 10484 10483 10500 10525 10531 10513 10493 10489 10499 10510 10514 10512 10513 10516 10518 10519 10518 10516 10517 10518 10517 10519 10518 10515 10514 10513 10512 10513 10513 10512 10510 10509 10508 10507 10506 10504 10504 10503 10501 10499 10497 10494 10493 10491 10490 10488 10486 10484 10483 10481 10479 10476 10473 10470 10467 10464
10398 10399 10403 10400 10402 10410 10412 10412 10417 10421 10434 10459 10475 10476 10470 10460 10455 10447 10433 10438 10462 10468 10459 10457 10459 10461 10467 10470 10471 10472 10470 10473 10489 10510 10512 10492 10477 10480 10492 10499 10500 10500 10500 10502 10505 10506 10505 10504 10504 10504 10505 10506 10504 10502 10501 10500 10500 10500 10499 10498 10497 10496 10495 10494 10492 10492 10491 10490 10488 10487 10485 10483 10481 10479 10477 10475 10474 10472 10470 10469 10467 10464 10461 10458 10455 10452
10389 10389 10389 10387 10390 10399 10400 10398 10402 10410 10425 10448 10461 10463 10457 10445 10436 10426 10414 10422 10446 10452 10445 10447 10450 10450 10453 10455 10455 10456 10456 10460 10473 10488 10490 10479 10468 10470 10479 10485 10486 10485 10485 10487 10490 10491 10491 10491 10491 10491 10492 10491 10490 10489 10487 10487 10487 10487 10486 10485 10484 10483 10482 10481 10480 10479 10478 10478 10477 10475 10473 10471 10469 10467 10465 10463 10461 10459 10458 10456 10454 10451 10449 10446 10443 10440
10377 10378 10379 10380 10383 10388 10386 10383 10386 10396 10412 10432 10444 10446 10442 10432 10422 10411 10405 10415 10430 10434 10436 10441 10439 10436 10438 10439 10439 10441 10442 10446 10456 10468 10473 10469 10460 10458 10464 10470 10472 10471 10471 10471 10473 10474 10475 10477 10478 10478 10479 10478 10477 10476 10475 10474 10475 10475 10474 10473 10472 10471 10470 10468 10467 10467 10466 10465 10464 10462 10461 10459 10456 10455 10453 10451 10449 10447 10445 10443 10441 10439 10436 10433 10430 10428
10366 10366 10367 10369 10371 10375 10376 10374 10376 10384 10399 10414 10423 10427 10425 10419 10411 10405 10405 10411 10415 10417 10423 10427 10424 10420 10420 10420 10422 10426 10429 10433 10440 10448 10455 10456 10452 10449 10450 10454 10457 10458 10457 10457 10458 10458 10459 10462 10464 10465 10466 10466 10465 10464 10462 10462 10462 10462 10461 10461 10460 10459 10458 10457 10456 10455 10454 10453 10451 10449 10448 10446 10444 10443 10440 10438 10436 10434 10432 10430 10427 10425 10423 10420 10418 10415
10355 10353 10354 10358 10361 10363 10366 10365 10364 10372 10389 10402 10407 10409 10408 10404 10399 10397 10397 10398 10398 10399 10403 10409 10410 10407 10406 10406 10408 10411 10415 10420 10424 10428 10435 10441 10440 10438 10437 10438 10441 10443 10444 10444 10444 10443 10444 10446 10449 10450 10451 10451 10450 10450 10449 10449 10449 10450 10449 10449 10448 10447 10446 10445 10443 10442 10441 10439 10438 10436 10434 10432 10431 10429 10427 10425 10423 10420 10418 10416 10413 10411 10408 10406 10404 10401
10342 10344 10347 10352 10354 10352 10352 10355 10357 10364 10377 10386 10389 10391 10392 10390 10388 10385 10381 10381 10382 10381 10384 10390 10394 10393 10392 10394 10396 10397 10401 10406 10408 10411 10416 10421 10424 10424 10422 10422 10424 10427 10429 10430 10429 10429 10429 10430 10433 10435 10435 10435 10435 10434 10434 10434 10435 10435 10435 10434 10434 10433 10432 10431 10429 10428 10427 10425 10423 10422 10420 10418 10417 10414 10412 10410 10408 10406 10403 10401 10398 10396 10394 10391 10389 10386
10331 10337 10338 10340 10342 10339 10340 10347 10354 10358 10363 10368 10371 10374 10376 10376 10375 10372 10367 10367 10369 10368 10367 10371 10375 10377 10378 10381 10383 10384 10387 10390 10393 10396 10399 10402 10406 10408 10407 10406 10407 10409 10412 10413 10413 10413 10413 10414 10416 10419 10419 10420 10419 10418 10418 10417 10418 10418 10419 10418 10418 10418 10418 10416 10415 10413 10412 10410 10409 10407 10406 10404 10402 10399 10397 10395 10393 10391 10388 10386 10383 10381 10378 10376 10373 10371
10319 10324 10324 10326 10329 10330 10332 10339 10346 10348 10349 10351 10353 10356 10359 10359 10357 10356 10355 10356 10357 10358 10357 10356 10360 10364 10367 10367 10369 10370 10371 10374 10377 10380 10381 10383 10386 10389 10390 10391 10392 10392 10394 10396 10397 10397 10397 10398 10400 10401 10402 10403 10403 10402 10402 10401 10401 10402 10402 10401 10402 10402 10402 10401 10400 10399 10398 10396 10394 10392 10390 10388 10386 10383 10381 10379 10377 10375 10373 10370 10368 10365 10363 10360 10357 10355
10307 10309 10311 10313 10317 10321 10324 10330 10335 10336 10336 10337 10335 10336 10340 10342 10341 10340 10341 10342 10344 10346 10347 10346 10347 10352 10355 10356 10357 10356 10357 10360 10362 10364 10365 10365 10368 10371 10373 10375 10377 10378 10379 10380 10381 10382 10383 10383 10384 10384 10385 10386 10386 10386 10386 10386 10386 10385 10385 10385 10385 10385 10385 10385 10384 10384 10382 10381 10379 10376 10374 10371 10369 10366 10364 10362 10361 10359 10356 10354 10351 10349 10346 10344 10341 10339
10296 10297 10298 10299 10303 10309 10314 10320 10326 10326 10322 10319 10317 10318 10323 10327 10327 10325 10324 10324 10327 10331 10334 10335 10336 10338 10341 10343 10343 10343 10345 10348 10349 10349 10351 10353 10354 10357 10358 10360 10363 10366 10366 10367 10367 10367 10368 10368 10369 10369 10370 10370 10370 10370 10370 10370 10370 10369 10368 10369 10369 10368 10368 10368 10368 10367 10366 10364 10362 10360 10357 10354 10351 10350 10348 10346 10344 10342 10339 10337 10335 10333 10331 10329 10327 10325
10282 10283 10286 10287 10289 10295 10302 10308 10314 10313 10305 10299 10299 10305 10310 10311 10310 10309 10308 10309 10311 10314 10316 10319 10321 10322 10325 10328 10329 10329 10331 10335 10335 10334 10336 10341 10344 10344 10345 10347 10350 10353 10354 10355 10355 10355 10354 10354 10354 10354 10356 10356 10355 10356 10356 10356 10355 10354 10352 10352 10352 10352 10352 10351 10351 10350 10349 10347 10345 10342 10339 10337 10335 10333 10332 10330 10327 10325 10323 10321 10320 10319 10318 10316 10313 10311
10269 10270 10273 10272 10271 10279 10288 10292 10291 10288 10285 10285 10287 10292 10295 10294 10292 10292 10296 10299 10299 10298 10298 10301 10304 10306 10309 10311 10312 10313 10316 10320 10321 10319 10320 10325 10329 10329 10330 10332 10335 10338 10341 10342 10342 10342 10342 10340 10339 10340 10340 10341 10342 10343 10343 10343 10341 10339 10338 10337 10337 10337 10336 10336 10335 10334 10333 10331 10328 10325 10323 10320 10319 10317 10315 10313 10311 10309 10307 10306 10305 10305 10303 10301 10299 10296
10256 10255 10256 10253 10252 10260 10271 10273 10267 10263 10265 10272 10277 10278 10279 10278 10277 10278 10282 10285 10284 10283 10283 10284 10288 10292 10295 10295 10296 10297 10299 10303 10305 10304 10305 10310 10313 10313 10313 10315 10318 10321 10323 10324 10326 10327 10327 10325 10325 10325 10325 10326 10327 10328 10328 10327 10325 10324 10323 10323 10323 10322 10322 10321 10321 10320 10318 10315 10312 10309 10306 10304 10303 10301 10299 10296 10295 10293 10292 10291 10290 10289 10287 10285 10283 10280